Station Historical Data
Daily Summary for August 3, 2017 Units:  Metric    English   Both
« Previous Day
Next Day »
Daily Weekly Monthly Yearly Custom
  High: Low: Average:
Temperature: 30.5 °C 17.5 °C 23.5 °C
Dew Point: 20.7 °C 15 °C 17.4 °C
Humidity: 90% 45% 70%
Wind Speed: 14.5km/h 0km/h 3.1km/h
Wind Gust: 33.8km/h - -
Wind- - SSW
Pressure: 1017.8 hPa 1013.4 hPa -
Precipitation: 0 mm    
Historical Graphs
 
 
Tabular Data for August 3, 2017
Time Temperature Dew Point Pressure Wind Wind Speed Wind Gust Humidity Rainfall Rate (Hourly)
00:04 21.6 °C 17.3 °C 1016.5 hPa Calm     77% 0 mm
00:09 21.4 °C 17.2 °C 1016.5 hPa Calm     77% 0 mm
00:14 21.4 °C 17.2 °C 1016.5 hPa Calm     77% 0 mm
00:19 21.3 °C 17.1 °C 1016.8 hPa Calm     77% 0 mm
00:24 20.9 °C 16.9 °C 1016.8 hPa Calm     78% 0 mm
00:29 20.7 °C 16.9 °C 1016.8 hPa Calm     79% 0 mm
00:34 20.5 °C 16.9 °C 1016.8 hPa Calm     80% 0 mm
00:39 20.4 °C 17.1 °C 1016.8 hPa Calm     81% 0 mm
00:44 20.4 °C 17.1 °C 1016.8 hPa Calm     81% 0 mm
00:49 20.4 °C 16.9 °C 1016.8 hPa Calm     80% 0 mm
00:54 20.4 °C 16.9 °C 1016.5 hPa Calm     80% 0 mm
00:59 20.5 °C 16.9 °C 1016.5 hPa Calm     80% 0 mm
01:04 20.4 °C 16.8 °C 1016.5 hPa Calm     80% 0 mm
01:09 20.3 °C 16.9 °C 1016.8 hPa Calm     81% 0 mm
01:14 20.3 °C 16.9 °C 1016.8 hPa Calm     81% 0 mm
01:19 20.2 °C 16.8 °C 1016.8 hPa Calm     81% 0 mm
01:24 20.1 °C 16.7 °C 1016.8 hPa Calm     81% 0 mm
01:29 20.2 °C 16.8 °C 1016.8 hPa Calm     81% 0 mm
01:34 20.2 °C 16.8 °C 1016.8 hPa Calm     81% 0 mm
01:39 20.1 °C 16.7 °C 1016.5 hPa Calm     81% 0 mm
01:44 20 °C 16.6 °C 1016.8 hPa Calm     81% 0 mm
01:49 19.9 °C 16.6 °C 1016.8 hPa Calm     81% 0 mm
01:54 19.8 °C 16.6 °C 1016.8 hPa Calm     82% 0 mm
01:59 19.7 °C 16.6 °C 1016.8 hPa Calm     82% 0 mm
02:04 19.7 °C 16.5 °C 1016.8 hPa Calm     82% 0 mm
02:09 19.5 °C 16.6 °C 1016.8 hPa Calm     83% 0 mm
02:14 19.4 °C 16.4 °C 1016.8 hPa Calm     83% 0 mm
02:19 19.4 °C 16.4 °C 1016.8 hPa Calm     83% 0 mm
02:24 19.3 °C 16.4 °C 1016.8 hPa Calm     83% 0 mm
02:29 19.4 °C 16.5 °C 1016.8 hPa Calm     83% 0 mm
02:34 19.6 °C 16.6 °C 1016.8 hPa Calm     83% 0 mm
02:39 19.5 °C 16.3 °C 1016.8 hPa Calm     82% 0 mm
02:44 19.5 °C 16.3 °C 1016.8 hPa Calm     82% 0 mm
02:49 19.4 °C 16.3 °C 1016.8 hPa Calm     82% 0 mm
02:54 19.4 °C 16.2 °C 1016.8 hPa Calm     82% 0 mm
02:59 19.3 °C 16.1 °C 1016.8 hPa Calm     82% 0 mm
03:04 19.2 °C 16.2 °C 1016.5 hPa Calm     83% 0 mm
03:09 19.1 °C 16.2 °C 1016.5 hPa Calm     83% 0 mm
03:14 19.1 °C 16.2 °C 1016.5 hPa Calm     83% 0 mm
03:19 19.1 °C 16.1 °C 1016.8 hPa Calm     83% 0 mm
03:24 18.9 °C 16 °C 1016.8 hPa Calm     83% 0 mm
03:29 18.9 °C 16.2 °C 1016.8 hPa Calm     84% 0 mm
03:34 18.9 °C 16.2 °C 1016.5 hPa Calm     84% 0 mm
03:39 18.8 °C 16.1 °C 1016.5 hPa Calm     84% 0 mm
03:44 18.8 °C 16 °C 1016.8 hPa Calm     84% 0 mm
03:54 18.8 °C 16.1 °C 1016.5 hPa Calm     84% 0 mm
03:59 18.9 °C 16.2 °C 1016.5 hPa Calm     84% 0 mm
04:04 18.9 °C 16.2 °C 1016.5 hPa Calm     84% 0 mm
04:09 18.8 °C 16.1 °C 1016.5 hPa Calm     84% 0 mm
04:14 18.8 °C 16 °C 1016.5 hPa Calm     84% 0 mm
04:19 18.7 °C 15.9 °C 1016.5 hPa Calm   4.8 km/h 84% 0 mm
04:24 18.7 °C 15.9 °C 1016.5 hPa Calm   4.8 km/h 84% 0 mm
04:29 18.7 °C 15.9 °C 1016.5 hPa Calm   3.2 km/h 84% 0 mm
04:34 18.6 °C 15.8 °C 1016.5 hPa Calm     84% 0 mm
04:39 18.5 °C 15.7 °C 1016.5 hPa Calm     84% 0 mm
04:44 18.5 °C 15.9 °C 1016.5 hPa Calm     85% 0 mm
04:49 18.5 °C 15.7 °C 1016.5 hPa Calm     84% 0 mm
04:54 18.4 °C 15.7 °C 1016.5 hPa Calm     84% 0 mm
04:59 18.4 °C 15.7 °C 1016.5 hPa Calm     84% 0 mm
05:04 18.4 °C 15.7 °C 1016.5 hPa Calm     84% 0 mm
05:09 18.4 °C 15.7 °C 1016.8 hPa Calm     84% 0 mm
05:14 18.3 °C 15.6 °C 1016.8 hPa Calm     84% 0 mm
05:19 18.1 °C 15.4 °C 1016.8 hPa Calm     84% 0 mm
05:24 18.1 °C 15.6 °C 1016.8 hPa Calm     85% 0 mm
05:29 18.1 °C 15.3 °C 1016.8 hPa Calm     84% 0 mm
05:34 18.1 °C 15.5 °C 1016.8 hPa Calm     85% 0 mm
05:39 18.1 °C 15.3 °C 1016.8 hPa Calm     84% 0 mm
05:44 18 °C 15.3 °C 1016.8 hPa Calm     84% 0 mm
05:49 17.9 °C 15.2 °C 1016.8 hPa Calm     84% 0 mm
05:54 17.8 °C 15.1 °C 1016.8 hPa Calm     84% 0 mm
05:59 17.8 °C 15.2 °C 1016.8 hPa Calm     85% 0 mm
06:04 17.7 °C 15.1 °C 1016.8 hPa Calm     85% 0 mm
06:09 17.6 °C 15 °C 1016.8 hPa Calm     85% 0 mm
06:14 17.5 °C 15.1 °C 1016.8 hPa Calm     86% 0 mm
06:24 17.6 °C 15.2 °C 1016.8 hPa Calm     86% 0 mm
06:29 17.6 °C 15.2 °C 1016.8 hPa Calm     86% 0 mm
06:34 17.7 °C 15.3 °C 1017.2 hPa Calm     86% 0 mm
06:39 17.9 °C 15.4 °C 1017.2 hPa Calm     85% 0 mm
06:44 18.2 °C 15.6 °C 1017.2 hPa Calm     85% 0 mm
06:49 18.3 °C 15.6 °C 1017.2 hPa Calm     84% 0 mm
06:54 18.4 °C 15.7 °C 1017.2 hPa Calm     84% 0 mm
06:59 18.5 °C 15.7 °C 1017.2 hPa Calm     84% 0 mm
07:04 18.6 °C 15.7 °C 1017.5 hPa Calm     83% 0 mm
07:09 18.8 °C 15.9 °C 1017.5 hPa Calm   4.8 km/h 83% 0 mm
07:14 19.1 °C 15.9 °C 1017.5 hPa Calm     82% 0 mm
07:19 19.2 °C 15.9 °C 1017.5 hPa Calm   3.2 km/h 81% 0 mm
07:24 19.5 °C 15.9 °C 1017.5 hPa Calm     80% 0 mm
07:29 19.7 °C 16 °C 1017.5 hPa Calm     79% 0 mm
07:34 19.9 °C 15.9 °C 1017.5 hPa Calm     78% 0 mm
07:39 20.1 °C 15.9 °C 1017.5 hPa Calm     77% 0 mm
07:44 20.2 °C 15.8 °C 1017.5 hPa Calm     76% 0 mm
07:49 20.4 °C 16 °C 1017.5 hPa Calm   3.2 km/h 76% 0 mm
07:54 20.6 °C 16 °C 1017.5 hPa Calm   6.4 km/h 75% 0 mm
07:59 20.9 °C 16.3 °C 1017.8 hPa SSW 1.6 km/h 6.4 km/h 75% 0 mm
08:04 21.2 °C 16.2 °C 1017.8 hPa SW 3.2 km/h 8 km/h 73% 0 mm
08:09 21.3 °C 16.1 °C 1017.8 hPa Calm   8 km/h 72% 0 mm
08:14 21.6 °C 16.3 °C 1017.8 hPa SW 1.6 km/h 8 km/h 72% 0 mm
08:19 21.8 °C 16.3 °C 1017.8 hPa SSW 3.2 km/h 8 km/h 71% 0 mm
08:24 22.1 °C 16.6 °C 1017.8 hPa SW 4.8 km/h 9.7 km/h 71% 0 mm
08:29 22.3 °C 16.6 °C 1017.8 hPa SW 4.8 km/h 9.7 km/h 70% 0 mm
08:34 22.5 °C 16.5 °C 1017.8 hPa SW 4.8 km/h 9.7 km/h 69% 0 mm
08:39 22.7 °C 16.7 °C 1017.8 hPa SSW 4.8 km/h 9.7 km/h 69% 0 mm
08:44 22.9 °C 16.7 °C 1017.8 hPa WSW 4.8 km/h 8 km/h 68% 0 mm
08:49 23.3 °C 16.8 °C 1017.8 hPa SW 3.2 km/h 8 km/h 67% 0 mm
08:54 23.6 °C 16.9 °C 1017.8 hPa WSW 4.8 km/h 11.3 km/h 66% 0 mm
08:59 23.8 °C 16.6 °C 1017.8 hPa WSW 6.4 km/h 11.3 km/h 64% 0 mm
09:04 23.8 °C 17.1 °C 1017.8 hPa SW 9.7 km/h 11.3 km/h 66% 0 mm
09:09 24.1 °C 17.1 °C 1017.8 hPa WSW 8 km/h 12.9 km/h 65% 0 mm
09:14 24.2 °C 16.7 °C 1017.8 hPa West 4.8 km/h 9.7 km/h 63% 0 mm
09:19 24.4 °C 17.2 °C 1017.8 hPa WSW 4.8 km/h 11.3 km/h 64% 0 mm
09:24 24.6 °C 17.1 °C 1017.8 hPa WSW 4.8 km/h 11.3 km/h 63% 0 mm
09:29 24.8 °C 17 °C 1017.8 hPa WSW 6.4 km/h 12.9 km/h 62% 0 mm
09:34 24.9 °C 17.7 °C 1017.8 hPa WSW 6.4 km/h 12.9 km/h 64% 0 mm
09:39 25.1 °C 17.3 °C 1017.8 hPa WSW 6.4 km/h 11.3 km/h 62% 0 mm
09:44 25.4 °C 17.4 °C 1017.8 hPa WSW 6.4 km/h 11.3 km/h 61% 0 mm
09:49 25.3 °C 17.7 °C 1017.8 hPa WSW 4.8 km/h 11.3 km/h 63% 0 mm
09:54 25.4 °C 17.6 °C 1017.8 hPa WSW 8 km/h 11.3 km/h 62% 0 mm
09:59 25.3 °C 17.3 °C 1017.8 hPa South 8 km/h 11.3 km/h 61% 0 mm
10:04 25 °C 17.2 °C 1017.8 hPa West 3.2 km/h 9.7 km/h 62% 0 mm
10:09 24.8 °C 17.1 °C 1017.8 hPa SW 3.2 km/h 9.7 km/h 62% 0 mm
10:14 24.8 °C 17.1 °C 1017.8 hPa SSW 3.2 km/h 8 km/h 62% 0 mm
10:19 25.2 °C 17.2 °C 1017.8 hPa SW 4.8 km/h 11.3 km/h 61% 0 mm
10:24 25.7 °C 17.4 °C 1017.8 hPa SSW 4.8 km/h 12.9 km/h 60% 0 mm
10:29 25.8 °C 17.4 °C 1017.8 hPa SW 6.4 km/h 12.9 km/h 60% 0 mm
10:34 25.9 °C 17.3 °C 1017.8 hPa SW 4.8 km/h 11.3 km/h 59% 0 mm
10:39 26.1 °C 17.4 °C 1017.8 hPa West 4.8 km/h 11.3 km/h 59% 0 mm
10:44 26.3 °C 17.7 °C 1017.5 hPa WNW 4.8 km/h 12.9 km/h 59% 0 mm
10:49 26.6 °C 17.9 °C 1017.5 hPa WSW 4.8 km/h 12.9 km/h 59% 0 mm
10:54 26.3 °C 17.4 °C 1017.5 hPa West 3.2 km/h 12.9 km/h 58% 0 mm
10:59 26.4 °C 16.9 °C 1017.8 hPa WSW 1.6 km/h 9.7 km/h 56% 0 mm
11:04 26.3 °C 17.3 °C 1017.8 hPa SW 6.4 km/h 9.7 km/h 58% 0 mm
11:09 26.6 °C 17.9 °C 1017.8 hPa West 6.4 km/h 11.3 km/h 59% 0 mm
11:14 26.7 °C 18 °C 1017.5 hPa Calm   8 km/h 59% 0 mm
11:19 26.8 °C 17.6 °C 1017.8 hPa WSW 4.8 km/h 9.7 km/h 57% 0 mm
11:24 26.9 °C 17.9 °C 1017.5 hPa WSW 3.2 km/h 9.7 km/h 58% 0 mm
11:29 27.4 °C 18.7 °C 1017.5 hPa WSW 4.8 km/h 9.7 km/h 59% 0 mm
11:34 26.9 °C 17.7 °C 1017.5 hPa West 4.8 km/h 11.3 km/h 57% 0 mm
11:39 27.1 °C 18.6 °C 1017.5 hPa West 3.2 km/h 14.5 km/h 60% 0 mm
11:44 27.1 °C 17.5 °C 1017.5 hPa WSW 4.8 km/h 11.3 km/h 56% 0 mm
11:49 27.1 °C 17.3 °C 1017.5 hPa West 4.8 km/h 11.3 km/h 55% 0 mm
11:54 27.4 °C 17.9 °C 1017.5 hPa West 4.8 km/h 11.3 km/h 56% 0 mm
11:59 27.3 °C 17.8 °C 1017.5 hPa SW 4.8 km/h 11.3 km/h 56% 0 mm
12:04 27.2 °C 18.2 °C 1017.5 hPa SW 6.4 km/h 11.3 km/h 58% 0 mm
12:09 27.3 °C 18.1 °C 1017.5 hPa SW 4.8 km/h 11.3 km/h 57% 0 mm
12:14 27.4 °C 17.9 °C 1017.5 hPa WSW 3.2 km/h 11.3 km/h 56% 0 mm
12:19 27.8 °C 18.2 °C 1017.5 hPa SSW 4.8 km/h 11.3 km/h 56% 0 mm
12:24 27.7 °C 18.9 °C 1017.2 hPa WNW 3.2 km/h 8 km/h 59% 0 mm
12:29 28.2 °C 18.3 °C 1017.2 hPa SSW 3.2 km/h 9.7 km/h 55% 0 mm
12:34 28.3 °C 19.3 °C 1017.2 hPa SSW 9.7 km/h 11.3 km/h 58% 0 mm
12:39 28.3 °C 18.4 °C 1017.2 hPa WNW 6.4 km/h 11.3 km/h 55% 0 mm
12:44 28.5 °C 19.4 °C 1017.2 hPa WNW 6.4 km/h 6.4 km/h 58% 0 mm
12:49 28.3 °C 18.1 °C 1017.2 hPa WSW 4.8 km/h 12.9 km/h 54% 0 mm
12:54 28.1 °C 18.5 °C 1017.2 hPa WSW 6.4 km/h 12.9 km/h 56% 0 mm
12:59 27.8 °C 18.6 °C 1016.8 hPa SSW 4.8 km/h 11.3 km/h 57% 0 mm
13:04 28.1 °C 17.9 °C 1016.8 hPa SSW 3.2 km/h 9.7 km/h 54% 0 mm
13:09 28.6 °C 19 °C 1016.8 hPa WSW 3.2 km/h 11.3 km/h 56% 0 mm
13:14 28.7 °C 18.8 °C 1016.8 hPa SW 4.8 km/h 9.7 km/h 55% 0 mm
13:19 28.7 °C 19.3 °C 1016.8 hPa SW 4.8 km/h 9.7 km/h 57% 0 mm
13:24 28.9 °C 18.4 °C 1016.5 hPa SW 8 km/h 12.9 km/h 53% 0 mm
13:29 28.8 °C 18.2 °C 1016.5 hPa SSW 6.4 km/h 8 km/h 53% 0 mm
13:34 29.2 °C 19.5 °C 1016.5 hPa SW 9.7 km/h 11.3 km/h 56% 0 mm
13:39 29.3 °C 18.7 °C 1016.5 hPa SSE 8 km/h 9.7 km/h 53% 0 mm
13:44 29 °C 19.1 °C 1016.1 hPa West 6.4 km/h 8 km/h 55% 0 mm
13:49 29.3 °C 18.4 °C 1016.1 hPa SW 4.8 km/h 12.9 km/h 52% 0 mm
13:54 29.7 °C 18.8 °C 1015.8 hPa WSW 4.8 km/h 12.9 km/h 52% 0 mm
13:59 29.3 °C 18.4 °C 1015.8 hPa WSW 4.8 km/h 12.9 km/h 52% 0 mm
14:04 29.2 °C 18.1 °C 1015.8 hPa SW 6.4 km/h 12.9 km/h 51% 0 mm
14:09 29.3 °C 18.1 °C 1015.8 hPa SSW 4.8 km/h 11.3 km/h 51% 0 mm
14:14 29.6 °C 19.6 °C 1015.8 hPa Calm   12.9 km/h 55% 0 mm
14:19 30.1 °C 20.1 °C 1015.5 hPa SW 6.4 km/h 12.9 km/h 55% 0 mm
14:24 29.9 °C 20.2 °C 1015.5 hPa WNW 4.8 km/h 11.3 km/h 56% 0 mm
14:29 29.8 °C 19.2 °C 1015.5 hPa South 4.8 km/h 9.7 km/h 53% 0 mm
14:34 29.8 °C 18.6 °C 1015.5 hPa West 4.8 km/h 14.5 km/h 51% 0 mm
14:39 29.8 °C 19.2 °C 1015.5 hPa NW 11.3 km/h 11.3 km/h 53% 0 mm
14:44 29.8 °C 18.9 °C 1015.1 hPa WSW 4.8 km/h 14.5 km/h 52% 0 mm
14:49 30 °C 19.1 °C 1015.1 hPa WSW 6.4 km/h 14.5 km/h 52% 0 mm
14:54 29.9 °C 19.3 °C 1015.1 hPa West 6.4 km/h 17.7 km/h 53% 0 mm
14:59 29.9 °C 20.7 °C 1015.1 hPa West 8 km/h 17.7 km/h 58% 0 mm
15:04 30.2 °C 19.8 °C 1014.8 hPa West 4.8 km/h 12.9 km/h 54% 0 mm
15:09 30 °C 19.4 °C 1014.8 hPa WNW 4.8 km/h 8 km/h 53% 0 mm
15:14 30.2 °C 19.6 °C 1015.1 hPa SW 8 km/h 14.5 km/h 53% 0 mm
15:19 29.8 °C 19.2 °C 1014.8 hPa WSW 6.4 km/h 14.5 km/h 53% 0 mm
15:24 30.1 °C 19.8 °C 1014.8 hPa West 4.8 km/h 11.3 km/h 54% 0 mm
15:29 30.1 °C 18.6 °C 1014.8 hPa WSW 8 km/h 16.1 km/h 50% 0 mm
15:34 30.2 °C 18.9 °C 1014.8 hPa West 1.6 km/h 11.3 km/h 51% 0 mm
15:39 30.3 °C 19.1 °C 1014.4 hPa WSW 4.8 km/h 12.9 km/h 51% 0 mm
15:44 30.3 °C 19.6 °C 1014.8 hPa West 3.2 km/h 11.3 km/h 53% 0 mm
15:49 30.3 °C 19.4 °C 1014.4 hPa West 6.4 km/h 14.5 km/h 52% 0 mm
15:54 29.9 °C 18.1 °C 1014.4 hPa West 4.8 km/h 14.5 km/h 49% 0 mm
15:59 30.4 °C 19.5 °C 1014.4 hPa West 3.2 km/h 8 km/h 52% 0 mm
16:04 30.2 °C 18.7 °C 1014.4 hPa WSW 4.8 km/h 12.9 km/h 50% 0 mm
16:09 30.4 °C 17.9 °C 1014.1 hPa SW 6.4 km/h 12.9 km/h 47% 0 mm
16:14 30.2 °C 18.3 °C 1014.1 hPa SW 6.4 km/h 16.1 km/h 49% 0 mm
16:19 30.3 °C 19.6 °C 1014.1 hPa WSW 6.4 km/h 16.1 km/h 53% 0 mm
16:24 30.5 °C 18.9 °C 1014.1 hPa WSW 4.8 km/h 11.3 km/h 50% 0 mm
16:29 30.5 °C 18.6 °C 1014.1 hPa WSW 4.8 km/h 11.3 km/h 49% 0 mm
16:34 30.1 °C 18.2 °C 1014.1 hPa SW 3.2 km/h 9.7 km/h 49% 0 mm
16:39 30.2 °C 18.7 °C 1014.4 hPa SE 12.9 km/h 17.7 km/h 50% 0 mm
16:44 29.5 °C 17.7 °C 1014.1 hPa SSW 8 km/h 20.9 km/h 49% 0 mm
16:49 29.1 °C 16.7 °C 1014.1 hPa SSE 8 km/h 20.9 km/h 47% 0 mm
16:54 29.1 °C 16.3 °C 1014.1 hPa SSE 8 km/h 19.3 km/h 46% 0 mm
16:59 29 °C 15.9 °C 1014.1 hPa SW 9.7 km/h 14.5 km/h 45% 0 mm
17:04 29 °C 16.6 °C 1014.1 hPa SE 3.2 km/h 11.3 km/h 47% 0 mm
17:09 28.9 °C 16.4 °C 1014.1 hPa SE 6.4 km/h 16.1 km/h 47% 0 mm
17:14 28.9 °C 16.5 °C 1014.4 hPa ESE 12.9 km/h 17.7 km/h 47% 0 mm
17:19 28.6 °C 17.2 °C 1014.8 hPa SSE 11.3 km/h 32.2 km/h 50% 0 mm
17:24 26.6 °C 17.3 °C 1014.8 hPa SSE 14.5 km/h 33.8 km/h 57% 0 mm
17:29 25.7 °C 17.4 °C 1014.8 hPa SSE 14.5 km/h 33.8 km/h 60% 0 mm
17:34 25.3 °C 17.2 °C 1014.8 hPa SSE 11.3 km/h 22.5 km/h 61% 0 mm
17:39 25.3 °C 17.5 °C 1014.8 hPa SE 12.9 km/h 27.4 km/h 62% 0 mm
17:44 25.3 °C 17.2 °C 1014.8 hPa SSW 6.4 km/h 19.3 km/h 61% 0 mm
17:49 25.2 °C 17.2 °C 1014.4 hPa South 6.4 km/h 22.5 km/h 61% 0 mm
17:54 25.4 °C 17.6 °C 1014.4 hPa SSE 4.8 km/h 17.7 km/h 62% 0 mm
17:59 25.8 °C 17.5 °C 1014.4 hPa SSE 6.4 km/h 14.5 km/h 60% 0 mm
18:04 25.8 °C 17.2 °C 1014.4 hPa SE 8 km/h 16.1 km/h 59% 0 mm
18:09 25.8 °C 16.9 °C 1014.4 hPa SSE 11.3 km/h 16.1 km/h 58% 0 mm
18:14 25.6 °C 16.9 °C 1014.4 hPa SE 8 km/h 12.9 km/h 59% 0 mm
18:19 25.3 °C 17 °C 1014.8 hPa SSE 6.4 km/h 12.9 km/h 60% 0 mm
18:24 25 °C 16.9 °C 1014.8 hPa SE 6.4 km/h 14.5 km/h 61% 0 mm
18:29 25 °C 16.9 °C 1014.4 hPa SE 6.4 km/h 14.5 km/h 61% 0 mm
18:34 25.2 °C 17.4 °C 1014.4 hPa SSE 4.8 km/h 11.3 km/h 62% 0 mm
18:39 25.1 °C 17.3 °C 1014.4 hPa South 4.8 km/h 11.3 km/h 62% 0 mm
18:44 25.1 °C 17.5 °C 1014.4 hPa ESE 6.4 km/h 12.9 km/h 63% 0 mm
18:49 24.9 °C 17.8 °C 1014.4 hPa SE 4.8 km/h 12.9 km/h 65% 0 mm
18:54 24.8 °C 17.8 °C 1014.8 hPa SE 3.2 km/h 8 km/h 65% 0 mm
18:59 24.8 °C 18 °C 1014.8 hPa ESE 3.2 km/h 8 km/h 66% 0 mm
19:04 24.6 °C 17.8 °C 1014.4 hPa Calm   8 km/h 66% 0 mm
19:09 24.5 °C 17.9 °C 1014.4 hPa SE 1.6 km/h 8 km/h 67% 0 mm
19:14 24.4 °C 18.1 °C 1014.4 hPa Calm   6.4 km/h 68% 0 mm
19:19 24.3 °C 18.2 °C 1014.4 hPa ESE 3.2 km/h 11.3 km/h 69% 0 mm
19:24 24.1 °C 18.1 °C 1014.8 hPa ESE 3.2 km/h 11.3 km/h 69% 0 mm
19:29 24 °C 17.9 °C 1014.8 hPa ESE 3.2 km/h 12.9 km/h 69% 0 mm
19:34 23.8 °C 18.1 °C 1014.8 hPa SE 4.8 km/h 12.9 km/h 70% 0 mm
19:39 23.7 °C 18.2 °C 1014.8 hPa East 8 km/h 9.7 km/h 71% 0 mm
19:44 23.6 °C 18.2 °C 1014.8 hPa East 4.8 km/h 9.7 km/h 72% 0 mm
19:49 23.4 °C 17.8 °C 1014.8 hPa ESE 3.2 km/h 9.7 km/h 71% 0 mm
19:54 23.2 °C 17.7 °C 1014.8 hPa SE 3.2 km/h 8 km/h 71% 0 mm
19:59 23.1 °C 17.8 °C 1014.8 hPa Calm   11.3 km/h 72% 0 mm
20:04 23 °C 17.7 °C 1014.8 hPa East 4.8 km/h 9.7 km/h 72% 0 mm
20:09 23 °C 17.7 °C 1014.8 hPa East 3.2 km/h 9.7 km/h 72% 0 mm
20:14 23.1 °C 17.7 °C 1014.8 hPa East 4.8 km/h 12.9 km/h 72% 0 mm
20:19 23 °C 17.9 °C 1014.8 hPa ENE 3.2 km/h 12.9 km/h 73% 0 mm
20:24 22.9 °C 17.8 °C 1014.8 hPa ENE 3.2 km/h 9.7 km/h 73% 0 mm
20:29 22.8 °C 17.9 °C 1014.8 hPa ENE 6.4 km/h 11.3 km/h 74% 0 mm
20:34 22.8 °C 17.9 °C 1014.8 hPa East 8 km/h 9.7 km/h 74% 0 mm
20:39 22.8 °C 17.9 °C 1014.8 hPa SE 1.6 km/h 8 km/h 74% 0 mm
20:44 22.8 °C 17.9 °C 1014.8 hPa ESE 1.6 km/h 9.7 km/h 74% 0 mm
20:49 22.8 °C 18.2 °C 1015.1 hPa SE 1.6 km/h 8 km/h 75% 0 mm
20:54 22.6 °C 18.4 °C 1015.1 hPa Calm   6.4 km/h 77% 0.25 mm
20:59 22.3 °C 18.4 °C 1015.1 hPa East 1.6 km/h 6.4 km/h 79% 0.25 mm
21:04 22 °C 18.4 °C 1015.1 hPa NE 1.6 km/h 6.4 km/h 80% 0.25 mm
21:09 21.8 °C 18.6 °C 1015.1 hPa Calm   1.6 km/h 82% 0.25 mm
21:19 21.6 °C 18.6 °C 1015.1 hPa Calm     83% 0.25 mm
21:24 21.6 °C 18.6 °C 1014.8 hPa Calm     83% 0.25 mm
21:29 21.5 °C 18.7 °C 1014.8 hPa Calm     84% 0.25 mm
21:34 21.6 °C 18.8 °C 1014.8 hPa Calm     84% 0.25 mm
21:39 21.6 °C 19 °C 1014.8 hPa Calm     85% 0.25 mm
21:44 21.7 °C 19.2 °C 1014.8 hPa Calm     86% 0.25 mm
21:49 21.7 °C 19.2 °C 1014.8 hPa Calm     86% 0.51 mm
21:54 21.7 °C 19.2 °C 1014.8 hPa Calm     86% 0.25 mm
21:59 21.5 °C 19.1 °C 1014.8 hPa Calm     86% 0.25 mm
22:04 21.4 °C 19 °C 1014.8 hPa Calm     86% 0.25 mm
22:09 21.5 °C 19.2 °C 1014.4 hPa Calm     87% 0.25 mm
22:14 21.5 °C 19.2 °C 1014.4 hPa Calm     87% 0.25 mm
22:19 21.5 °C 19.2 °C 1014.4 hPa Calm     87% 0.25 mm
22:24 21.4 °C 19.2 °C 1014.4 hPa Calm     87% 0.25 mm
22:29 21.4 °C 19.1 °C 1014.4 hPa Calm   3.2 km/h 87% 0.25 mm
22:34 21.3 °C 19.1 °C 1014.1 hPa SE 1.6 km/h 6.4 km/h 87% 0.25 mm
22:39 21.3 °C 19.2 °C 1014.1 hPa SE 3.2 km/h 6.4 km/h 88% 0.25 mm
22:44 21.2 °C 19.1 °C 1013.8 hPa Calm   4.8 km/h 88% 0.25 mm
22:49 21.1 °C 19.1 °C 1013.8 hPa SE 1.6 km/h 4.8 km/h 88% 0 mm
22:54 21.1 °C 19 °C 1013.8 hPa SE 1.6 km/h 6.4 km/h 88% 0 mm
22:59 20.9 °C 18.9 °C 1013.8 hPa SE 1.6 km/h 6.4 km/h 88% 0 mm
23:04 20.9 °C 19.1 °C 1013.8 hPa Calm   4.8 km/h 89% 0 mm
23:09 20.9 °C 19 °C 1013.4 hPa Calm   1.6 km/h 89% 0 mm
23:19 20.8 °C 18.9 °C 1013.4 hPa ESE 1.6 km/h 4.8 km/h 89% 0 mm
23:24 20.8 °C 18.9 °C 1013.4 hPa Calm   4.8 km/h 89% 0 mm
23:34 20.8 °C 18.9 °C 1013.4 hPa Calm     89% 0 mm
23:39 20.8 °C 18.9 °C 1013.4 hPa Calm     89% 0 mm
23:44 20.8 °C 19.1 °C 1013.4 hPa West 3.2 km/h 6.4 km/h 90% 0 mm
23:54 21 °C 19.3 °C 1014.1 hPa West 3.2 km/h 14.5 km/h 90% 0 mm
23:59 21.1 °C 19.3 °C 1013.8 hPa Calm   16.1 km/h 90% 0 mm
Buffalo, New York, USA
Compliments of Weather Underground - 2.5 mb